GEFSSE_con_cape1000_000.txt.gz
Probability
3 100 100 100 94 87 90 26 13 42 97 90 100 100 100 100 100 100 100 100 100 100 74 32 6 58 87 94 97 100 100 100 100 100 100 100 100 100 100 100 97 100 100
26 100 100 100 100 100 100 94 71 90 97 87 100 100 100 100 100 100 100 100 100 100 100 100 35 6 42 94 94 100 100 100 100 100 100 97 100 100 100 100 94 100 100
84 100 100 100 100 100 100 100 100 100 100 100 100 100 100 100 100 100 100 100 100 100 100 97 97 61 10 13 68 100 100 100 100 100 100 97 100 100 100 100 94 100 100
97 100 100 100 100 100 100 100 100 100 100 100 100 100 100 100 100 100 100 100 100 100 100 100 97 81 55 42 32 52 87 94 100 100 100 100 71 100 100 100 100 100 87
100 100 100 100 100 100 100 100 100 100 100 100 100 100 100 97 97 100 100 100 100 100 100 100 100 100 97 87 100 100 100 100 100 100 100 100 48 84 100 100 100 100 81
100 100 100 100 100 100 100 100 100 100 100 100 100 100 100 94 87 65 81 94 84 74 81 97 100 100 97 100 100 100 100 100 100 100 94 55 26 71 100 100 100 100 97
100 100 100 100 100 100 100 100 100 100 100 100 100 100 100 100 100 87 77 84 87 81 87 94 100 100 100 100 100 100 100 100 100 100 100 97 23 100 100 100 100 100 100
100 100 100 100 100 100 100 100 100 100 100 100 100 100 100 100 100 97 100 100 100 97 97 87 100 100 100 100 100 100 100 100 100 97 100 100 100 100 100 100 100 100 100
100 100 100 100 100 100 100 100 100 100 100 100 100 100 100 100 100 100 100 100 100 100 100 100 100 100 100 100 100 100 100 100 100 100 100 87 100 100 100 100 100 100 100
100 100 100 100 100 100 100 100 100 100 100 100 100 100 100 100 100 100 100 100 100 100 100 100 100 100 100 100 100 100 100 100 100 97 97 84 97 100 100 100 100 100 100
94 100 94 77 77 87 100 100 100 100 100 100 100 100 100 94 94 100 100 100 100 100 100 100 100 100 100 100 100 100 100 97 97 97 97 100 100 100 100 100 100 100 100
29 29 42 26 16 45 97 97 100 100 100 100 100 87 61 32 81 100 100 100 100 100 100 100 100 100 100 100 100 100 100 100 97 87 97 100 100 100 100 100 100 100 100
16 16 32 26 10 10 61 71 87 87 90 97 100 87 23 32 68 97 100 100 100 100 100 100 100 100 100 100 100 74 58 97 97 90 97 100 100 100 100 100 100 100 100
26 29 23 26 10 3 0 29 77 84 87 87 94 90 65 74 84 84 90 100 100 100 100 100 100 100 90 87 68 29 16 23 65 74 97 100 100 100 100 100 100 100 100
74 42 13 29 13 3 0 16 19 32 71 84 84 84 77 87 94 90 87 77 97 100 100 100 94 90 90 81 23 6 32 13 39 87 97 100 100 100 100 100 100 100 100
100 84 10 19 13 0 0 16 32 52 52 58 48 58 65 81 94 100 97 87 71 81 90 97 94 84 81 87 81 55 23 3 55 94 94 94 97 100 100 100 100 100 100
87 94 71 26 16 3 3 35 74 94 94 45 26 35 58 81 94 100 100 97 55 6 6 13 58 29 32 35 26 26 10 16 71 84 71 71 90 100 100 100 100 100 100
100 100 100 100 100 77 81 94 94 97 97 90 74 48 81 97 100 100 100 87 52 16 39 71 55 42 13 6 6 0 0 0 0 13 10 19 74 94 100 100 100 100 100
100 100 100 97 97 97 94 90 87 97 94 97 97 90 81 94 100 100 100 94 58 48 84 65 29 13 6 0 0 0 0 0 0 3 0 3 29 84 100 100 100 100 100
100 97 100 90 94 90 87 81 61 45 13 39 35 45 61 84 97 97 97 84 61 77 90 48 29 0 0 0 0 0 0 0 0 0 0 0 0 16 77 100 100 100 100
94 94 97 100 100 97 71 39 10 10 16 23 26 71 65 65 81 65 77 74 71 90 90 45 10 3 0 0 0 0 0 0 0 0 0 0 0 0 13 39 39 90 100
81 90 90 90 100 97 87 65 55 48 32 23 26 32 32 29 68 61 3 26 45 32 29 52 26 6 0 0 0 0 0 0 0 0 0 0 0 0 0 0 0 61 71
68 45 48 45 71 84 94 84 55 35 23 3 6 10 10 13 29 77 52 10 10 3 10 6 35 35 16 0 0 0 0 0 0 0 0 0 0 0 0 0 0 10 16
13 3 10 16 45 77 90 77 42 16 3 0 0 0 0 0 0 26 58 55 29 3 0 0 3 19 16 6 0 0 0 0 0 0 0 0 0 0 0 0 0 0 0
0 0 0 0 0 23 29 16 6 0 0 0 0 0 0 0 0 0 0 0 10 6 0 0 0 0 0 3 0 0 0 0 0 0 0 0 0 0 0 0 0 0 0
0 0 0 0 0 3 6 6 6 0 0 0 0 0 0 0 0 0 0 0 0 0 0 0 0 0 0 0 0 0 0 0 0 0 0 0 0 0 0 0 0 0 0

GEFSSE_con_cape1000_006.txt.gz
Probability
0 84 100 87 87 52 32 65 74 97 100 100 100 100 100 100 100 100 90 58 61 71 65 94 97 97 100 100 100 100 100 100 100 100 100 100 100 100 100 100 94 94 100
0 87 100 87 97 77 35 77 71 84 100 100 100 100 100 100 100 100 100 97 84 26 10 35 77 90 84 87 100 100 100 100 100 100 77 97 100 100 100 77 87 100 100
10 90 100 94 100 94 68 90 100 97 100 100 100 100 100 100 100 100 100 100 100 29 13 6 3 26 55 55 68 77 90 100 97 87 87 100 100 100 100 84 87 100 100
65 90 61 90 100 97 84 100 100 100 100 100 100 100 100 100 100 100 100 97 90 65 48 16 3 0 3 10 26 48 61 61 58 52 55 77 100 100 100 100 97 100 100
84 90 55 100 100 100 90 100 100 100 100 100 100 100 100 100 100 100 100 94 94 94 77 52 39 19 3 3 3 3 13 23 58 87 100 97 71 100 100 97 94 94 97
94 97 81 100 100 100 97 100 100 100 100 100 100 100 100 100 100 100 100 97 94 90 94 94 90 94 77 58 39 29 19 6 19 55 81 55 35 65 100 100 97 97 97
97 97 100 100 100 100 100 94 100 100 100 100 100 100 100 100 100 100 100 100 100 90 94 100 100 100 100 100 100 100 81 77 68 97 87 84 84 97 100 100 100 100 100
100 100 100 100 100 100 100 100 100 100 100 100 100 100 100 100 100 100 100 100 100 100 100 100 100 100 100 100 100 100 100 100 100 100 100 100 97 100 100 100 100 100 100
100 100 100 100 100 100 100 100 100 100 100 100 100 100 100 100 100 100 100 100 100 100 100 100 100 100 100 100 100 100 100 100 100 100 97 97 94 100 100 100 100 100 100
100 100 100 100 100 100 100 100 100 100 100 100 100 100 100 100 100 100 100 100 100 100 100 100 100 100 100 100 100 100 100 100 100 100 100 97 100 100 100 100 100 100 100
100 100 100 100 100 100 100 100 100 100 100 100 100 100 100 100 100 100 100 100 100 100 100 100 100 100 100 100 100 100 100 100 100 97 94 94 100 100 100 100 100 100 100
100 100 100 97 97 100 100 100 100 100 100 100 100 100 100 100 100 100 100 100 100 100 100 100 100 100 100 100 100 100 100 100 100 100 100 100 100 100 100 100 100 100 100
100 100 100 97 90 94 100 87 90 100 100 100 100 100 100 94 77 100 100 100 100 100 100 100 100 100 100 100 100 100 100 100 100 100 100 100 100 100 100 100 100 100 100
71 94 94 94 68 58 68 58 65 84 90 90 94 100 94 81 55 55 74 97 100 100 100 100 100 100 100 100 100 100 100 100 100 100 100 100 100 100 100 100 100 100 100
55 48 45 71 65 52 26 26 32 65 87 87 90 97 100 97 94 65 74 90 97 100 100 100 100 100 100 100 100 100 100 100 84 39 35 94 100 100 100 100 100 100 100
65 42 23 23 35 32 26 19 23 42 77 84 90 97 97 100 100 94 87 90 90 100 100 100 97 100 100 100 100 100 100 100 84 65 48 74 100 100 100 100 100 100 100
90 61 42 26 13 6 6 3 3 16 42 55 81 87 94 94 94 81 71 74 97 100 94 90 97 94 90 84 90 94 97 100 97 84 77 77 90 100 100 100 100 100 100
97 90 71 68 45 23 6 3 3 10 32 55 77 68 68 71 68 65 84 90 90 100 87 77 77 61 61 68 77 81 87 97 97 97 97 94 90 84 97 100 100 100 100
100 100 100 90 84 35 16 13 6 23 39 35 35 48 55 55 74 74 81 94 94 97 94 71 61 45 35 26 19 45 48 35 42 29 32 32 45 55 48 48 90 100 100
100 97 97 94 94 74 55 16 10 3 6 3 0 3 10 10 42 23 42 48 71 71 87 77 61 39 3 3 3 6 10 13 6 3 6 6 13 16 16 23 48 65 97
97 94 90 87 81 74 16 3 0 0 0 0 0 0 3 3 3 3 0 0 3 10 29 55 55 29 13 0 0 0 0 0 0 3 3 0 0 3 3 3 3 6 10
90 87 87 90 81 55 6 0 0 0 0 0 0 0 0 0 0 0 0 0 0 0 3 6 19 10 3 0 3 0 0 0 0 0 0 0 0 0 0 0 0 0 0
84 81 71 81 74 42 23 3 3 0 0 0 0 0 0 0 0 0 0 0 0 0 0 0 0 0 0 0 0 0 0 0 0 0 0 0 0 0 0 0 0 0 0
74 65 45 29 19 16 10 19 6 3 0 0 0 0 0 0 0 0 0 0 0 0 0 0 0 0 6 3 0 0 0 0 0 0 0 0 0 0 0 0 0 0 0
26 23 16 13 10 13 10 13 6 3 0 0 0 0 0 0 0 0 0 0 0 0 0 0 0 0 6 6 0 0 0 0 0 0 0 0 0 0 0 0 0 0 0
0 0 0 0 0 0 0 0 0 3 3 0 0 0 0 0 0 0 0 0 0 0 0 0 0 0 0 3 3 0 0 0 0 0 0 0 0 0 0 0 0 0 0

GEFSSE_con_cape1000_012.txt.gz
Probability
0 42 71 100 100 100 100 100 100 100 100 100 100 100 100 100 97 74 68 90 97 100 100 100 100 100 100 100 100 100 100 100 100 100 100 97 100 100 100 87 81 100 100
3 74 81 100 97 100 100 100 100 100 100 100 100 100 100 100 94 77 65 65 61 81 94 94 94 100 100 100 100 100 100 100 100 100 94 94 97 90 84 61 58 100 100
42 77 61 100 97 100 100 100 100 100 100 100 100 100 100 100 100 100 68 35 13 23 42 65 71 71 71 90 94 100 100 100 100 94 100 61 84 84 55 58 90 100 97
19 42 13 100 97 100 100 100 100 100 100 100 100 100 100 100 100 97 87 39 10 0 0 0 13 19 19 42 52 77 97 97 94 84 58 6 29 100 97 52 90 94 100
26 35 87 100 97 94 100 100 100 100 100 100 100 100 100 100 100 90 74 55 29 19 13 3 0 0 0 3 10 16 35 48 55 35 0 0 13 100 100 87 84 90 100
23 16 90 100 97 97 100 100 100 100 100 100 100 100 100 97 94 81 90 90 84 71 65 52 42 32 10 0 0 3 3 13 10 0 0 0 13 100 100 100 94 97 100
10 10 81 100 100 100 100 100 100 100 100 100 100 100 100 100 97 97 100 100 100 97 94 97 97 94 90 61 48 29 13 0 0 0 10 35 58 100 100 100 100 100 100
6 10 87 100 100 100 100 100 100 100 100 100 100 100 100 100 100 100 100 100 100 100 100 100 97 97 100 100 100 97 100 97 26 3 0 3 94 100 100 100 100 100 100
3 3 94 90 100 100 100 100 100 100 100 100 100 100 100 100 100 100 100 100 100 100 100 100 100 100 100 100 100 100 100 100 97 81 48 52 100 100 100 100 100 100 100
29 10 97 65 94 100 100 100 100 100 100 100 100 100 100 100 100 100 100 100 100 100 100 100 100 100 100 100 100 100 100 100 35 0 23 97 100 100 100 100 100 100 100
100 68 71 55 100 100 87 100 100 100 100 100 100 100 100 100 97 100 100 100 100 100 100 100 100 100 100 100 100 100 100 74 13 19 29 68 100 100 100 100 100 100 100
100 100 97 87 100 100 97 100 100 100 100 100 100 100 100 100 100 100 94 100 100 100 100 100 100 100 100 100 100 100 100 97 87 90 94 100 100 100 100 100 100 100 100
100 100 100 100 100 100 100 100 100 100 100 100 100 100 100 100 100 100 100 100 100 100 100 100 100 100 100 100 100 100 100 100 100 100 100 100 100 100 100 100 100 100 100
100 100 100 100 100 100 100 100 100 100 100 100 100 100 100 100 100 100 100 100 100 100 100 97 100 100 100 100 100 100 97 100 100 100 100 100 100 100 100 100 100 100 100
100 100 100 100 100 100 100 100 100 100 100 100 100 100 100 100 100 100 100 100 100 100 100 100 100 100 100 100 100 94 94 100 100 100 100 100 100 100 100 100 100 100 100
100 100 100 100 100 100 100 100 100 100 100 100 100 100 100 100 100 100 100 100 100 100 100 100 100 100 100 100 100 97 90 84 81 97 100 100 100 100 100 100 100 100 100
100 100 100 100 100 100 100 100 100 100 100 100 100 100 100 100 100 100 97 97 100 100 100 100 100 100 100 97 90 94 87 77 68 74 84 97 97 100 100 100 100 100 100
100 100 100 100 100 100 100 100 100 100 100 100 100 100 100 100 100 100 100 100 100 97 100 100 100 100 100 100 94 77 68 65 61 65 68 84 94 90 100 100 100 100 100
100 100 100 100 100 100 100 100 100 100 100 100 100 97 94 84 84 90 94 97 90 84 84 90 90 97 97 100 100 97 81 81 74 65 68 77 81 97 94 100 100 100 100
100 100 100 100 100 97 97 100 94 87 71 58 52 71 65 42 32 26 23 26 26 26 29 42 58 77 87 90 87 97 94 97 90 87 90 84 87 90 97 97 100 100 100
100 100 97 97 94 94 90 61 26 16 10 16 19 26 13 10 3 13 0 3 10 3 13 16 6 3 16 35 58 55 65 84 100 97 97 94 87 90 90 97 97 94 97
97 100 97 97 94 94 84 65 58 35 0 0 3 32 26 6 3 0 0 0 0 3 3 3 6 0 0 0 13 13 10 19 84 84 100 94 90 84 77 68 71 97 94
81 97 94 97 94 90 87 55 61 97 84 19 29 52 35 19 3 0 0 0 0 0 0 0 13 3 0 0 0 6 0 0 3 29 87 87 87 90 65 35 32 68 90
71 94 100 100 97 94 94 77 45 84 3 10 81 16 42 16 0 0 0 0 3 0 0 0 0 10 26 16 26 58 39 0 3 3 35 58 68 94 65 23 6 35 65
87 94 97 100 97 94 94 97 97 74 32 13 65 71 48 13 0 0 0 0 10 10 6 3 13 29 26 29 39 42 52 77 39 3 3 13 48 58 61 84 61 35 39
71 71 77 90 100 97 97 84 90 97 97 94 87 58 29 6 3 0 0 0 3 3 6 10 10 16 48 58 61 55 52 45 35 10 0 6 29 48 68 84 61 52 61

GEFSSE_con_cape1000_018.txt.gz
Probability
3 13 100 100 100 100 100 100 100 100 100 97 90 90 84 71 68 74 97 100 100 100 100 100 100 100 100 100 100 100 100 100 100 100 100 100 100 100 100 100 100 77 100
3 13 100 100 100 100 100 100 100 100 100 100 97 97 100 65 45 55 74 97 100 100 100 100 100 100 100 100 100 100 100 90 74 77 94 97 90 90 74 84 100 81 100
3 16 100 100 100 100 100 100 100 100 100 100 100 100 97 58 19 16 29 55 84 84 87 87 77 77 84 87 87 97 94 71 65 68 90 81 68 65 61 94 100 100 61
6 3 42 100 100 100 100 100 100 100 100 100 100 100 97 77 16 3 0 13 29 35 42 35 35 39 42 52 65 84 84 87 71 87 97 90 13 77 55 71 94 81 61
3 0 97 100 100 100 100 100 100 100 100 100 100 100 100 100 74 16 6 0 0 0 0 0 0 3 3 6 10 23 55 65 65 81 84 94 68 97 94 55 65 65 77
3 35 97 100 100 100 100 100 100 100 100 100 100 100 100 100 94 65 35 19 3 3 3 3 0 0 0 0 3 3 13 23 29 13 3 42 90 100 100 74 58 71 81
29 68 81 100 100 100 100 100 100 100 100 100 100 100 100 97 94 84 81 77 71 71 68 58 48 42 42 23 10 10 10 3 6 0 3 16 100 100 100 100 100 97 100
55 52 87 100 100 100 100 100 100 100 100 100 100 100 100 100 100 97 100 100 100 100 100 100 100 100 100 100 97 90 90 84 6 0 13 45 100 100 100 100 100 100 100
74 71 74 94 100 100 100 100 100 100 100 100 100 100 100 100 100 100 100 100 100 100 100 100 100 100 100 100 100 100 100 100 97 58 26 87 100 100 100 100 100 100 100
81 90 84 77 94 100 100 100 100 100 100 100 100 100 100 100 100 100 100 100 100 100 100 100 100 100 100 100 100 100 100 100 100 42 6 68 100 100 100 100 100 100 100
90 100 84 71 100 97 97 100 100 100 100 100 100 100 100 100 100 100 100 100 100 100 100 100 100 100 100 100 100 100 100 100 74 42 26 74 100 100 100 100 100 100 100
77 100 100 94 100 100 100 100 100 100 100 100 100 100 100 100 100 100 100 100 100 100 100 100 100 100 100 100 100 100 100 100 58 39 65 100 100 100 100 100 100 100 100
84 100 97 100 100 100 100 100 100 100 100 100 100 100 100 100 100 100 100 100 100 100 100 100 100 100 100 100 100 100 100 100 90 81 90 100 100 100 100 100 100 100 100
100 100 100 100 100 100 100 100 100 100 100 100 100 100 100 100 100 100 97 100 100 100 100 100 100 100 100 97 94 90 90 94 94 94 97 94 94 97 97 100 100 100 100
100 100 100 100 100 100 100 100 100 100 100 100 100 100 100 100 100 97 97 100 100 100 100 100 97 100 97 87 77 77 84 81 87 94 94 87 94 97 94 100 100 100 100
100 100 100 100 100 100 100 100 100 100 100 100 100 100 100 100 100 100 100 100 100 97 97 97 94 94 90 84 74 74 77 74 74 74 74 81 90 94 94 94 97 100 100
100 100 100 100 100 100 100 100 100 100 100 100 100 100 100 100 100 100 100 100 94 94 94 97 97 97 90 81 74 81 81 77 77 71 71 68 71 84 90 94 94 100 100
100 100 100 100 100 100 100 100 100 100 100 100 100 100 100 100 100 100 100 100 97 97 97 94 94 97 97 94 87 87 87 87 74 71 65 61 52 42 71 94 94 94 97
100 100 100 100 100 100 100 100 100 100 100 100 100 100 97 81 87 87 94 90 90 90 94 77 90 97 90 90 87 87 87 84 84 77 65 61 55 48 55 61 94 94 97
97 100 100 100 100 100 100 100 97 97 94 94 97 94 68 55 61 65 61 81 45 39 52 68 71 61 74 74 39 39 61 74 71 68 71 65 71 55 52 52 71 81 97
94 100 100 100 97 97 94 94 94 97 87 65 77 81 35 19 32 32 58 52 35 42 68 26 32 26 35 45 32 23 26 32 42 65 68 74 74 68 65 71 77 68 77
84 90 100 100 100 97 100 100 100 97 71 77 77 90 74 71 58 16 74 42 45 68 35 61 71 81 32 32 35 10 3 10 35 29 58 71 84 90 87 77 81 87 84
55 77 90 100 100 100 100 100 100 100 100 100 100 97 97 90 68 61 35 42 58 55 55 84 84 71 48 55 39 19 0 0 13 32 61 61 87 97 97 97 97 87 87
32 58 81 90 94 97 100 100 100 94 94 100 100 100 97 87 74 58 48 26 45 61 74 68 74 84 77 48 58 65 26 13 6 3 13 29 68 84 97 94 84 74 87
13 23 61 77 90 94 97 100 100 100 100 100 100 100 100 94 90 77 61 32 52 58 65 65 74 77 65 55 45 42 26 26 19 13 0 16 39 77 94 100 90 84 77
6 3 19 61 68 74 84 94 100 100 100 100 100 100 100 100 97 81 45 45 26 35 52 58 65 55 55 68 68 35 23 23 29 19 16 19 13 45 77 90 97 90 87

GEFSSE_con_cape1000_024.txt.gz
Probability
0 87 100 100 100 100 100 100 90 74 65 74 94 94 97 94 94 100 100 100 100 100 100 97 100 100 100 100 100 100 100 100 100 100 100 100 100 100 100 100 100 87 100
0 90 100 100 100 100 100 100 94 84 84 81 97 97 97 97 100 100 100 100 100 100 100 100 100 100 100 100 100 100 100 100 100 100 100 100 100 100 100 100 100 97 97
0 90 100 100 100 100 100 100 97 97 87 90 97 90 94 97 100 100 100 100 100 100 100 100 100 100 100 100 100 100 90 90 97 100 97 48 94 100 100 100 100 100 100
6 90 100 100 100 100 100 100 100 100 94 94 94 94 77 77 90 100 100 100 100 100 94 94 94 94 94 94 97 97 94 87 87 100 71 39 58 100 100 100 100 100 100
6 52 100 100 100 100 100 100 100 100 100 100 100 97 77 61 68 68 87 94 90 84 84 81 68 61 68 71 77 81 87 74 68 68 42 23 3 97 100 100 100 97 97
0 55 100 100 100 100 100 100 100 100 100 100 100 94 84 65 55 58 61 61 61 58 48 52 48 48 55 48 42 42 48 42 35 16 10 3 0 97 100 100 100 100 100
0 55 100 100 100 100 100 100 100 100 100 100 100 100 97 94 87 74 74 68 58 48 23 16 13 16 23 19 19 29 29 19 6 0 0 0 0 97 100 100 100 100 100
3 55 100 100 100 100 100 100 100 100 100 100 100 100 100 100 100 100 97 97 90 84 74 71 71 58 52 52 42 48 55 29 13 3 0 0 3 97 100 100 100 100 100
0 35 100 100 100 100 100 100 100 100 100 100 100 100 100 100 100 100 100 100 100 100 100 100 100 100 97 97 90 94 94 90 77 52 32 0 10 100 100 100 100 100 100
0 6 81 94 100 100 100 100 100 100 100 100 100 100 100 100 100 100 100 100 100 100 100 100 100 100 100 100 100 100 100 100 97 87 71 16 87 100 100 97 100 100 100
0 0 19 58 71 97 100 100 100 100 100 100 100 100 100 100 100 100 100 100 100 100 100 100 100 100 100 100 100 100 100 100 97 90 74 58 100 100 100 100 100 100 100
0 0 3 16 42 61 87 97 100 100 100 100 100 100 100 100 100 100 100 100 100 100 100 100 100 100 100 100 97 97 97 100 100 84 68 81 84 87 94 97 97 97 100
6 0 0 10 19 35 26 39 94 100 100 100 100 100 100 100 97 100 94 100 100 100 100 100 100 100 90 90 84 81 81 84 77 71 61 74 77 77 81 90 90 90 94
19 10 0 3 6 16 10 19 68 94 100 100 100 100 97 97 97 87 77 81 100 100 100 100 100 94 90 84 74 74 71 74 68 65 48 71 74 74 71 77 87 87 94
42 19 6 3 23 23 32 55 61 74 97 100 100 100 97 94 90 87 81 71 77 81 87 84 77 74 74 71 68 71 68 58 55 65 55 71 68 74 71 77 74 77 84
19 19 16 26 55 68 84 94 97 100 100 100 100 100 97 97 87 90 55 45 39 45 32 45 48 48 48 48 52 48 35 35 39 48 42 48 68 71 68 71 74 77 87
10 10 19 29 48 68 94 100 100 100 97 97 100 97 97 97 84 65 42 35 35 26 23 16 13 13 10 13 13 19 19 23 26 29 42 35 42 77 74 74 77 81 84
6 13 13 23 42 65 74 94 100 100 100 100 97 97 97 97 87 58 35 26 26 13 6 3 3 3 3 3 0 0 6 3 6 16 19 32 32 32 61 74 84 87 87
0 0 10 13 29 48 65 81 87 94 97 97 100 97 97 94 71 39 23 13 6 3 0 3 0 0 0 0 0 0 0 0 3 6 10 19 29 26 19 42 77 90 87
0 0 3 10 16 32 58 61 61 65 74 68 90 71 61 48 52 19 6 3 0 0 0 0 0 0 0 0 0 0 0 0 0 0 0 3 3 19 32 26 29 61 84
0 0 6 6 10 23 29 45 35 35 29 55 58 42 32 16 10 3 0 0 0 0 0 0 0 0 0 0 0 0 0 0 0 0 0 0 0 6 16 16 19 13 35
0 0 3 6 6 10 16 23 16 10 10 10 35 19 10 3 0 0 0 0 0 0 0 0 0 0 0 0 0 0 0 0 0 0 0 0 0 3 6 6 10 16 19
0 0 3 0 0 0 3 3 3 0 0 3 3 3 0 0 0 0 0 0 0 0 0 0 0 0 0 0 0 0 0 0 0 0 0 0 0 0 0 0 6 16 19
0 0 0 0 0 0 0 0 3 3 0 0 0 3 0 0 0 0 0 0 0 0 0 0 0 0 0 0 0 0 0 0 0 0 0 0 0 0 0 0 0 10 23
0 0 0 0 0 0 0 0 0 0 0 0 0 0 0 0 0 0 0 0 0 0 0 0 0 0 0 0 0 0 0 0 0 0 0 0 0 0 0 0 0 3 3
0 0 0 0 0 0 0 0 0 0 0 0 0 3 0 0 0 0 0 0 0 0 0 0 0 0 0 0 0 0 0 0 0 0 0 0 0 0 0 0 0 3 0

GEFSSE_con_cape1000_030.txt.gz
Probability
0 65 100 100 94 84 71 77 94 97 97 100 100 100 100 100 100 100 100 100 100 100 100 100 100 100 100 100 100 100 100 100 100 100 100 100 100 100 100 100 94 97 97
0 81 100 100 100 90 77 71 94 97 97 100 100 100 100 100 100 100 100 100 100 100 100 100 100 100 100 100 100 100 100 100 100 100 100 100 100 100 100 97 94 97 100
0 94 100 100 100 100 87 81 84 94 100 100 100 100 100 100 100 100 100 100 100 100 100 100 100 100 100 100 100 100 100 100 100 100 100 100 100 100 100 100 94 100 100
16 90 100 100 100 100 97 87 87 94 97 100 100 100 100 100 100 100 100 100 100 100 100 100 100 100 100 97 100 100 100 100 100 100 81 90 100 100 100 97 100 94 94
42 87 100 100 100 100 97 90 97 94 97 100 100 100 100 100 100 100 100 100 100 100 100 97 97 97 97 97 97 100 100 100 100 94 26 71 84 100 100 100 100 100 94
58 87 100 100 100 100 100 97 97 97 97 100 100 100 100 100 100 100 100 100 100 100 97 97 94 97 94 97 97 94 94 90 97 65 32 29 19 97 100 100 100 100 100
55 81 94 100 100 100 100 100 100 97 97 97 100 100 100 100 100 100 100 100 100 100 94 94 94 90 90 90 90 94 87 90 65 13 10 10 3 74 100 100 100 100 100
61 90 94 100 100 100 100 100 100 100 100 100 100 100 100 100 100 100 100 100 100 97 94 90 90 87 90 90 87 84 84 74 32 13 13 3 6 39 94 100 100 100 100
71 94 97 100 100 100 100 100 100 100 100 100 100 100 100 100 100 100 100 100 97 97 97 97 97 97 94 97 100 100 94 94 32 13 10 13 6 45 97 100 100 100 100
71 94 100 100 100 100 100 100 100 100 100 100 100 100 100 100 100 100 100 100 100 100 100 100 100 100 100 100 100 100 100 100 90 71 65 61 61 87 100 100 100 100 100
42 77 100 100 100 100 100 100 100 100 100 100 100 100 100 100 100 100 100 100 100 100 100 100 100 100 100 100 100 100 100 100 94 94 87 87 97 97 100 100 100 100 100
19 55 74 84 84 87 87 84 87 97 100 100 100 100 100 100 100 100 100 100 100 100 100 100 100 100 100 100 100 100 97 97 100 97 90 97 97 90 90 97 100 100 100
0 23 45 65 68 74 74 58 65 77 84 94 100 100 100 100 100 100 100 100 100 100 100 100 100 100 100 100 100 94 94 90 97 87 81 90 90 90 90 90 97 97 97
0 6 16 35 45 48 48 42 45 65 68 74 87 100 100 100 100 100 100 100 100 100 100 100 97 97 97 94 90 81 84 77 77 77 77 81 84 84 84 87 84 90 94
0 0 0 13 19 23 23 16 23 35 45 55 77 90 94 94 94 97 97 90 81 68 77 84 87 87 87 87 81 81 77 77 74 68 65 74 77 81 77 77 81 87 90
10 6 3 0 6 10 13 10 10 10 23 35 55 61 81 81 81 71 61 55 29 35 39 42 45 55 55 55 61 65 68 61 65 61 52 55 74 81 77 74 84 84 87
3 6 6 0 0 0 0 6 6 13 16 23 35 52 68 77 74 61 42 19 19 16 16 13 10 10 16 13 13 23 29 26 32 29 32 39 45 55 77 77 84 81 81
3 0 6 6 3 3 3 6 6 16 16 26 35 45 68 68 68 55 35 19 13 10 6 3 0 3 3 3 0 0 0 3 3 13 16 19 26 29 42 65 77 81 81
0 0 0 3 3 3 6 0 6 10 19 26 39 52 55 61 68 55 26 13 10 3 0 0 0 0 0 0 0 0 0 0 0 0 0 0 6 16 29 23 68 84 81
0 0 0 0 3 0 0 3 3 6 23 29 32 39 48 52 48 32 13 6 3 0 0 0 0 0 0 0 0 0 0 0 0 0 0 0 0 0 6 16 32 45 68
0 0 0 0 0 0 0 3 3 3 3 13 29 32 29 29 32 13 6 3 0 0 0 0 0 0 0 0 0 0 0 0 0 0 0 0 0 0 0 3 13 26 29
0 0 0 0 0 0 0 0 0 3 0 0 3 6 16 19 16 13 3 0 0 0 0 0 0 0 0 0 0 0 0 0 0 0 0 0 0 0 0 0 6 19 23
0 0 0 0 0 0 0 0 0 0 0 0 0 0 0 3 6 3 0 0 0 0 0 0 0 0 0 0 0 0 0 0 0 0 0 0 0 0 0 0 0 0 6
0 0 0 0 0 0 0 0 0 0 0 0 0 0 0 0 0 0 0 0 0 0 0 0 0 0 0 0 0 0 0 0 0 0 0 0 0 0 0 0 0 0 3
0 0 0 0 0 0 0 0 0 0 0 0 0 0 0 0 0 0 0 0 0 0 0 0 0 0 0 0 0 0 0 0 0 0 0 0 0 0 0 0 0 0 0
0 0 0 0 0 0 0 0 0 0 0 0 0 0 0 0 0 0 0 0 0 0 0 0 0 0 0 0 0 0 0 0 0 0 0 0 0 0 0 0 0 0 0

GEFSSE_con_cape1000_036.txt.gz
Probability
10 90 94 100 100 100 100 100 100 100 100 100 100 100 100 100 100 100 100 100 97 97 97 97 97 100 100 100 100 100 100 100 100 100 100 100 100 100 100 97 87 90 100
19 94 97 100 100 100 100 100 100 100 100 100 100 100 100 100 100 100 100 100 100 100 97 97 100 100 100 100 100 100 100 100 100 100 97 97 94 100 100 97 87 100 100
55 97 94 100 100 100 100 100 100 100 100 100 100 100 100 100 100 100 100 100 100 100 100 100 100 97 100 97 97 97 97 100 100 100 97 68 81 94 94 90 94 97 100
48 97 87 100 100 100 100 100 100 100 100 100 100 100 100 100 100 100 100 100 100 100 100 100 100 100 87 81 90 97 97 97 100 100 100 61 39 97 97 94 97 97 94
58 97 100 100 100 100 100 97 97 100 100 100 100 100 100 100 100 100 100 100 100 100 97 97 97 84 90 71 84 87 90 97 97 97 71 81 87 100 100 97 94 97 100
68 84 100 100 100 100 100 100 97 97 97 97 100 100 97 100 100 100 100 100 100 100 97 97 97 84 87 77 74 84 87 97 97 48 42 74 97 100 100 100 97 94 97
48 65 100 100 100 100 100 100 97 97 97 100 100 100 97 100 100 100 100 100 100 100 97 97 97 97 97 97 90 90 94 90 97 45 39 45 97 100 100 100 100 97 94
32 65 100 100 100 100 100 100 100 97 97 100 100 100 100 100 100 100 100 100 100 100 100 97 97 97 97 100 97 97 97 97 65 35 52 45 97 87 97 97 100 100 100
10 48 100 100 100 100 100 100 100 100 100 100 100 100 100 100 100 100 100 100 100 100 100 100 97 97 97 100 100 97 97 94 68 52 35 61 94 77 87 100 100 100 100
19 48 100 100 100 100 97 100 100 100 100 100 100 100 100 97 97 100 100 100 100 100 100 100 97 97 100 100 100 100 100 100 16 23 26 55 97 81 94 97 100 100 100
74 87 94 100 100 100 100 97 100 100 100 100 100 100 100 94 48 100 100 100 100 100 100 100 100 100 100 100 100 100 100 45 6 3 16 74 97 97 97 97 100 100 100
90 90 100 100 100 100 100 100 100 100 100 100 97 97 100 94 94 74 97 100 100 100 100 100 100 100 100 100 100 100 81 55 26 19 42 97 97 97 97 100 100 100 100
87 97 97 97 100 100 100 100 100 100 100 100 100 100 100 100 97 94 94 100 100 100 100 100 100 100 100 94 97 94 81 58 58 58 61 97 97 97 100 100 100 100 97
94 97 97 94 94 97 94 87 84 84 87 90 94 100 100 100 100 100 100 100 100 100 100 100 97 97 97 100 100 94 87 84 84 77 90 87 94 97 97 97 100 97 97
87 84 84 84 87 87 90 94 71 74 68 61 74 74 90 94 90 97 100 100 97 87 100 100 97 100 100 97 94 81 84 81 84 84 84 90 94 94 94 90 84 81 84
61 71 68 68 61 81 74 77 68 58 77 61 65 65 68 81 90 90 94 97 94 94 90 94 87 94 94 97 90 84 81 84 90 84 77 87 94 90 90 90 84 81 74
52 55 58 39 45 65 74 74 65 52 45 55 65 68 65 68 77 84 87 87 90 94 97 97 94 97 100 87 90 90 87 87 84 84 90 94 87 81 87 87 87 87 77
35 45 35 32 45 61 68 71 58 58 55 48 48 52 45 42 55 71 77 81 81 87 94 90 84 84 74 87 84 94 90 97 84 81 87 84 90 71 68 81 77 84 84
23 16 26 29 35 52 61 68 55 61 61 58 48 39 35 32 32 48 61 68 65 71 77 74 65 71 58 65 61 77 74 68 71 61 61 65 71 77 74 81 81 84 77
13 6 16 13 26 29 29 48 65 61 61 58 58 39 23 16 10 23 42 42 45 55 65 61 45 55 48 48 6 10 29 29 35 39 23 26 45 45 45 42 71 55 65
3 10 10 16 16 16 23 19 35 35 32 26 19 13 13 13 16 16 23 35 35 45 48 19 19 16 29 16 16 16 13 13 16 19 16 10 3 6 6 16 35 45 58
3 3 3 3 3 3 13 23 26 29 29 16 13 3 3 3 13 10 26 35 39 48 29 29 23 10 3 3 6 13 6 6 3 0 3 0 0 0 0 0 10 26 23
0 0 0 6 6 6 6 0 6 16 16 10 6 10 3 0 3 13 16 23 35 39 42 55 45 13 3 0 0 0 0 0 0 0 0 0 0 3 3 0 0 3 16
0 0 0 0 0 0 0 3 0 0 0 0 3 0 0 3 0 0 6 13 16 29 35 32 19 29 13 0 0 0 0 0 0 0 0 0 0 0 0 0 0 0 3
0 0 0 0 0 0 0 0 0 0 0 0 0 0 0 0 0 0 3 3 10 19 19 29 42 45 48 13 3 3 0 3 0 0 0 0 0 0 0 0 0 0 3
0 0 0 0 0 0 0 0 0 0 0 0 0 0 0 0 0 0 3 3 3 3 6 19 26 29 61 42 29 3 3 0 0 0 0 0 0 0 0 0 0 3 3

GEFSSE_con_cape1000_042.txt.gz
Probability
97 94 100 100 100 100 100 100 100 100 100 100 100 100 100 100 100 97 97 97 97 94 87 90 90 87 87 97 100 100 100 97 100 100 100 100 100 100 100 100 97 97 100
97 97 100 100 100 100 100 100 100 100 100 100 100 100 100 100 100 100 94 94 90 90 94 97 97 100 100 100 94 100 100 94 94 100 100 100 97 94 94 100 100 100 100
84 87 100 100 100 100 100 100 100 100 100 100 100 100 100 100 100 100 97 87 90 87 94 100 100 97 97 90 94 94 97 94 94 94 100 97 87 97 97 100 100 100 100
87 71 97 100 100 100 100 100 100 100 100 100 100 100 100 100 100 100 100 97 94 97 97 100 100 87 77 87 87 97 94 97 97 94 97 94 74 90 97 100 100 100 100
81 81 100 100 100 100 100 100 100 100 100 100 100 100 97 97 100 100 100 100 100 100 100 100 100 90 71 84 90 87 97 97 97 100 97 94 87 97 94 97 97 97 97
90 94 100 100 100 100 100 100 100 97 97 97 100 97 97 97 97 100 100 100 100 100 100 100 100 97 84 71 90 87 87 94 97 97 97 97 97 100 97 94 97 97 94
100 97 97 100 100 100 100 100 100 97 97 94 97 97 97 97 97 97 100 100 100 100 100 100 100 97 97 77 81 90 87 90 94 97 87 97 100 100 100 97 97 97 97
100 97 100 100 100 100 100 100 100 97 97 97 100 100 100 97 100 100 100 100 100 100 100 100 97 100 100 97 97 97 94 94 71 71 81 100 100 100 100 100 100 97 97
100 100 100 100 100 100 100 100 97 97 97 100 100 100 100 100 100 100 100 100 100 100 100 100 100 100 100 100 100 100 100 100 90 65 48 94 100 100 100 100 100 100 100
100 100 100 100 100 97 97 100 100 100 100 100 100 100 100 100 100 100 100 100 100 100 100 100 100 100 100 100 100 100 100 100 81 29 32 90 100 100 100 100 100 100 100
81 100 100 100 100 100 100 100 100 100 100 100 100 100 100 100 100 100 100 100 100 100 100 100 100 100 100 100 100 100 100 97 16 3 6 71 100 100 100 100 100 100 100
65 90 100 100 100 100 100 100 100 100 100 100 100 100 100 100 100 94 100 100 100 100 100 100 100 100 100 100 100 100 100 68 6 0 19 94 100 100 100 100 100 100 100
81 87 100 100 100 100 100 100 100 100 100 100 100 100 100 100 100 94 94 100 100 100 100 100 100 100 100 94 90 97 77 32 16 6 48 97 100 100 100 100 100 100 100
97 97 97 97 97 100 100 100 100 97 97 97 97 97 97 100 97 100 100 97 90 94 94 94 94 97 100 87 87 87 84 55 42 42 77 94 90 94 100 100 100 100 100
100 97 100 97 97 97 97 97 97 97 94 94 97 97 97 97 97 94 97 97 94 94 84 77 74 77 84 87 90 71 77 81 68 58 68 90 87 94 94 94 100 100 100
90 87 87 90 90 97 97 97 97 94 100 94 97 97 100 97 97 97 90 90 77 71 61 52 55 61 68 71 77 77 71 77 77 61 61 71 90 90 90 94 100 100 100
77 74 71 71 77 84 87 84 81 94 87 90 94 94 97 94 97 94 84 74 68 52 48 42 48 45 52 48 55 65 74 81 81 65 58 61 68 71 81 90 97 100 100
74 71 68 35 52 71 74 84 65 71 81 94 90 87 87 81 74 77 71 52 48 42 29 19 19 23 32 35 35 52 61 61 61 61 55 48 39 26 61 81 90 94 100
74 77 74 58 48 55 55 55 52 65 71 74 74 61 58 61 61 71 65 39 35 32 23 6 10 19 23 23 29 32 42 45 45 35 45 39 35 32 32 35 81 87 90
52 45 45 45 58 39 32 32 35 39 32 42 48 48 48 35 23 29 29 26 16 16 13 3 6 13 6 13 10 10 29 32 29 39 45 29 39 35 32 39 55 52 84
16 23 19 23 39 48 29 16 16 13 19 23 29 29 19 13 10 23 16 16 3 6 6 0 0 0 3 10 6 10 19 19 23 29 23 16 16 26 42 48 48 42 32
10 6 26 19 16 19 35 35 23 16 6 6 16 13 13 10 3 0 13 10 10 3 0 0 3 3 3 3 6 0 3 3 16 3 19 19 16 19 26 32 35 74 48
3 3 0 10 16 26 19 10 3 13 3 0 0 6 3 0 3 3 0 0 10 3 3 3 3 3 3 3 3 0 3 0 0 6 13 13 19 26 23 26 39 48 55
0 0 6 3 16 13 19 6 0 0 0 0 0 0 0 0 0 0 0 0 0 3 3 3 6 3 3 0 3 6 3 3 0 0 3 6 13 16 6 3 6 45 58
0 0 0 19 16 13 16 6 10 0 0 0 0 0 0 0 0 0 0 0 0 0 0 3 3 3 3 0 0 0 0 3 0 0 0 0 3 6 6 10 10 6 26
0 0 0 10 6 10 6 3 0 3 3 0 0 0 0 0 0 0 0 0 0 0 0 0 0 3 0 0 0 0 0 0 3 0 0 0 0 6 10 19 13 13 19

GEFSSE_con_cape1000_048.txt.gz
Probability
100 100 100 100 100 100 100 100 100 100 100 100 100 100 100 100 100 100 100 100 100 100 100 100 100 100 100 100 100 100 100 100 100 100 100 100 100 100 100 100 100 100 100
100 100 100 100 100 100 100 100 100 100 100 100 100 100 100 100 100 100 100 100 100 100 100 100 100 100 100 100 100 100 100 100 100 100 100 100 100 100 100 100 100 100 100
100 100 100 100 100 100 100 100 100 100 100 100 100 100 100 100 100 100 100 100 100 100 100 100 100 100 100 100 100 100 100 100 100 100 100 100 100 100 100 100 100 100 100
100 100 100 100 100 100 100 100 100 100 100 100 100 100 100 100 100 100 97 97 100 100 100 100 100 97 97 100 97 97 97 100 100 100 71 74 100 100 100 100 100 100 100
94 100 100 100 100 100 100 100 100 100 100 100 100 100 100 100 100 100 100 100 100 100 100 100 100 97 94 97 97 97 97 100 100 97 77 39 84 100 100 100 100 100 100
87 97 100 100 100 100 100 100 100 100 100 100 100 100 100 100 100 100 100 100 100 100 100 100 100 90 94 97 97 97 97 97 100 87 55 32 87 100 100 100 100 100 100
90 100 100 100 100 100 100 100 100 100 100 100 100 100 100 100 100 100 100 100 100 100 100 100 100 97 97 94 97 100 100 97 90 65 32 32 84 100 100 100 100 100 100
90 100 100 100 100 100 100 100 100 100 100 100 100 100 100 100 100 100 100 100 100 100 100 100 100 100 97 97 97 100 100 97 94 77 48 26 87 100 100 100 100 100 100
90 100 100 100 100 100 100 100 100 100 100 100 100 100 100 100 100 100 100 100 100 100 100 100 100 100 100 100 100 100 100 100 90 52 45 29 97 100 100 100 100 100 100
97 100 100 100 100 100 100 100 100 100 100 100 100 100 100 100 100 100 100 100 100 100 100 100 100 100 100 100 100 100 100 100 94 65 32 35 100 100 100 100 100 100 100
90 90 94 97 97 97 100 100 100 100 100 100 100 100 100 100 100 100 100 100 100 100 100 100 100 100 100 100 100 100 100 100 65 29 10 42 100 100 100 100 100 100 100
87 87 84 87 94 94 100 100 100 100 100 100 100 100 100 100 100 100 100 100 100 100 100 100 100 97 100 100 100 100 100 94 55 32 6 48 97 100 100 100 100 100 100
81 84 84 87 87 94 94 94 90 94 94 97 97 97 97 94 94 94 90 87 84 97 100 100 97 94 87 90 87 94 90 87 58 23 6 55 100 100 100 100 100 100 100
65 74 77 81 77 77 68 71 74 84 81 87 87 84 84 77 74 61 52 58 48 45 58 71 71 68 68 71 68 65 68 65 42 13 3 55 100 100 100 100 100 100 100
45 45 42 52 52 52 52 48 58 61 71 65 58 58 68 65 55 42 35 26 26 35 32 39 35 35 35 42 48 35 35 39 16 10 6 42 94 97 97 97 97 97 100
23 29 29 23 16 23 26 19 26 23 23 26 35 42 39 35 32 29 26 19 19 26 26 23 23 26 29 26 29 26 29 16 16 13 10 26 81 94 94 90 90 90 94
16 10 13 6 6 6 10 13 16 10 13 10 13 19 23 23 23 23 23 19 16 13 6 16 19 19 16 13 16 16 19 13 10 10 13 16 19 71 84 84 77 81 87
3 0 3 6 6 3 3 6 6 6 0 3 6 13 10 10 6 6 10 6 3 6 3 3 0 0 0 0 0 0 6 6 6 6 6 6 6 16 48 81 84 81 74
3 3 3 3 0 0 0 0 0 0 0 3 3 3 3 3 0 0 0 0 0 0 3 3 3 3 0 0 0 0 0 3 3 3 3 6 3 3 6 26 71 71 74
3 3 3 3 0 0 0 0 0 0 0 0 0 3 0 0 0 0 0 0 0 0 0 0 0 0 0 0 0 0 0 0 0 0 3 3 3 6 6 6 13 32 71
3 3 0 3 0 0 0 0 0 0 0 0 0 0 0 0 0 0 0 0 0 0 0 0 0 0 0 0 0 0 0 0 0 0 0 0 0 3 3 6 6 6 10
3 0 0 0 0 0 0 0 0 0 0 0 0 0 0 0 0 0 0 0 0 0 0 0 0 0 0 0 0 0 0 0 0 0 0 0 0 0 0 3 3 3 3
0 0 0 0 0 0 0 0 0 0 0 0 0 0 0 0 0 0 0 0 0 0 0 0 0 0 0 0 0 0 0 0 0 0 0 0 0 0 0 0 0 3 0
0 0 0 0 0 0 0 0 0 0 0 0 0 0 0 0 0 0 0 0 0 0 0 0 0 0 0 0 0 0 0 0 0 0 0 0 0 0 0 0 0 0 0
0 0 0 0 0 0 0 0 0 0 0 0 0 0 0 0 0 0 0 0 0 0 0 0 0 0 0 0 0 0 0 0 0 0 0 0 0 0 0 0 0 0 0
0 0 0 0 0 0 0 0 0 0 0 0 0 0 0 0 0 0 0 0 0 0 0 0 0 0 0 0 0 0 0 0 0 0 0 0 0 0 0 0 0 0 0

GEFSSE_con_cape1000_054.txt.gz
Probability
94 100 100 100 100 100 100 100 100 100 100 100 100 100 100 100 100 100 100 100 100 100 100 100 100 100 100 100 100 100 100 100 100 100 100 100 100 100 100 100 100 97 100
97 100 100 100 100 100 100 100 100 100 100 100 100 100 100 100 100 100 100 100 100 100 100 100 100 100 100 100 100 100 100 100 100 100 100 97 100 100 100 100 97 97 100
100 100 100 100 100 100 100 100 100 100 100 100 100 100 100 100 100 100 100 100 100 100 100 100 100 100 97 97 100 100 100 100 100 100 100 100 100 100 100 100 100 100 97
100 100 100 100 100 100 100 100 100 100 100 100 100 100 100 100 100 100 100 100 100 100 100 100 97 97 100 100 100 100 100 100 100 100 97 100 100 100 100 100 100 100 97
100 100 100 100 100 100 100 100 100 100 100 100 100 100 100 100 100 100 97 100 100 100 100 100 97 94 94 100 100 100 100 100 100 100 77 87 100 100 100 100 100 100 97
100 100 100 100 100 100 100 100 100 100 100 100 100 100 100 100 100 100 100 100 100 100 100 100 100 94 94 97 100 100 100 100 100 77 68 81 100 100 100 100 100 100 100
100 100 100 100 100 100 100 100 100 100 100 100 100 100 100 100 100 100 100 100 100 100 100 100 100 97 94 94 100 100 100 100 90 74 65 74 90 100 100 100 100 100 100
100 100 100 100 100 100 100 100 100 100 100 100 100 100 100 100 100 100 100 100 100 100 100 100 100 100 100 94 97 100 100 100 97 71 71 61 84 100 100 100 100 100 100
100 100 100 100 100 100 100 100 100 100 100 100 100 100 100 100 100 100 100 100 100 100 100 100 100 100 100 100 100 100 100 100 90 77 71 61 87 100 100 100 100 100 100
97 100 100 100 100 100 100 100 100 100 100 100 100 100 100 100 100 100 100 100 100 100 100 100 100 100 100 100 100 100 100 100 100 74 71 61 97 100 100 100 100 100 100
94 94 90 100 100 100 100 100 100 100 100 100 100 100 100 100 100 100 100 100 100 100 100 100 100 100 100 100 100 100 100 100 94 87 84 81 100 100 100 100 100 100 100
84 87 90 90 90 97 100 94 97 97 97 100 100 97 97 97 94 97 97 97 100 100 100 100 100 100 97 97 97 97 100 97 84 77 65 87 100 100 100 100 100 100 100
68 74 74 81 77 81 81 77 81 81 81 87 90 90 84 81 74 71 71 68 68 74 68 81 87 94 94 87 81 84 84 90 84 77 65 100 100 97 100 100 100 100 100
65 48 48 52 58 61 61 61 61 68 58 58 61 71 61 55 52 48 52 48 45 48 45 55 58 68 68 71 58 65 65 68 71 77 58 90 97 100 97 100 100 100 100
39 23 26 29 35 32 29 26 32 32 35 39 35 42 48 45 42 32 29 26 23 26 32 32 26 29 32 45 42 48 42 52 52 55 48 77 90 97 97 94 100 97 100
16 10 13 6 3 6 3 3 3 3 3 3 0 16 26 23 23 23 23 13 10 13 13 16 19 19 19 23 26 32 29 39 35 35 42 48 77 90 94 94 94 97 94
6 10 3 3 3 0 0 0 3 3 3 3 3 3 10 3 3 10 10 10 6 3 6 10 13 13 19 19 13 16 13 23 29 32 35 29 26 55 81 87 94 94 94
3 3 3 3 0 0 0 0 0 0 0 0 0 0 3 3 3 3 3 3 0 0 0 0 3 6 6 10 13 13 10 6 10 16 19 23 23 16 35 65 81 87 90
0 3 0 0 0 0 0 0 0 0 0 0 0 0 0 0 3 0 0 0 0 0 0 3 3 3 3 6 6 6 6 6 6 6 6 13 16 13 13 13 58 65 74
0 0 0 0 0 0 0 0 0 0 0 0 0 0 0 0 0 0 0 0 0 0 0 0 0 0 0 0 0 0 0 0 0 3 3 3 3 6 10 6 16 39 68
0 0 0 0 0 0 0 0 0 0 0 0 0 0 0 0 0 0 0 0 0 0 0 0 0 0 0 0 0 0 0 0 0 0 0 0 0 0 6 3 10 13 13
0 0 0 0 0 0 0 0 0 0 0 0 0 0 0 0 0 0 0 0 0 0 0 0 0 0 0 0 0 0 0 0 0 0 0 0 0 0 0 0 3 6 10
0 0 0 0 0 0 0 0 0 0 0 0 0 0 0 0 0 0 0 0 0 0 0 0 0 0 0 0 0 0 0 0 0 0 0 0 0 0 0 3 3 3 3
0 0 0 0 0 0 0 0 0 0 0 0 0 0 0 0 0 0 0 0 0 0 0 0 0 0 0 0 0 0 0 0 0 0 0 0 0 0 0 0 3 3 3
0 0 0 0 0 0 0 0 0 0 0 0 0 0 0 0 0 0 0 0 0 0 0 0 0 0 0 0 0 0 0 0 0 0 0 0 0 0 0 0 0 6 0
0 0 0 0 0 0 0 0 0 0 0 0 0 0 0 0 0 0 0 0 0 0 0 0 0 0 0 0 0 0 0 0 0 0 0 0 0 0 0 0 0 0 0

GEFSSE_con_cape1000_060.txt.gz
Probability
61 100 100 100 100 100 100 100 100 100 100 100 100 100 100 100 100 100 100 100 100 97 97 100 100 100 100 100 100 100 100 100 100 100 100 100 100 100 100 100 100 90 100
74 100 100 100 100 100 100 100 100 100 100 100 100 100 100 100 100 100 100 100 100 100 97 100 100 100 100 94 100 100 100 100 100 97 100 100 100 100 100 100 100 97 100
84 97 100 100 100 100 100 100 100 100 100 100 100 100 100 100 100 100 100 100 100 100 100 100 94 100 97 97 97 100 100 100 100 97 100 100 97 100 100 100 100 100 100
84 97 97 100 100 100 100 100 100 100 100 100 100 100 100 100 100 100 100 100 100 100 100 90 94 94 97 94 97 100 100 100 100 100 97 87 94 100 100 100 100 100 100
94 100 100 100 100 100 100 100 100 100 100 100 100 100 100 100 100 100 100 100 100 100 97 94 97 94 94 97 100 100 100 100 94 94 77 94 100 100 100 100 100 100 100
97 97 100 100 100 100 100 100 100 100 100 100 100 100 100 100 100 100 100 100 100 100 97 97 100 94 94 97 100 100 100 100 100 55 58 77 100 100 100 100 100 100 100
87 97 100 100 100 100 100 100 100 100 100 100 100 100 100 100 100 100 100 100 100 100 100 100 100 97 94 94 100 100 100 100 94 55 65 71 100 100 100 100 100 100 100
81 94 100 100 100 100 100 100 100 100 100 100 100 100 100 100 100 100 100 100 100 100 100 100 100 100 97 94 97 100 100 100 90 58 65 71 100 100 100 100 100 100 100
81 90 100 100 100 100 100 100 100 100 100 100 100 100 100 100 100 100 100 100 100 100 100 100 100 100 100 97 97 97 97 100 90 90 61 94 100 100 100 100 100 100 100
94 90 97 94 97 94 97 100 100 100 100 100 100 100 100 100 100 100 100 100 100 100 100 100 100 100 100 97 97 97 97 97 77 77 77 100 100 97 100 100 100 100 100
97 94 90 87 97 97 97 97 100 100 97 94 94 94 97 100 100 100 97 100 100 100 100 100 100 97 97 97 97 97 97 87 58 58 77 100 100 97 97 100 100 100 100
90 87 94 94 97 87 74 100 100 97 94 90 94 87 84 94 94 77 87 90 90 94 97 94 94 94 97 94 94 94 90 81 45 58 84 97 97 97 97 97 100 100 100
74 87 87 84 90 90 90 87 94 94 97 87 84 68 81 77 74 71 77 77 71 74 81 84 90 90 94 100 100 94 90 61 61 48 61 97 97 97 97 97 100 100 100
84 84 84 94 97 90 84 81 77 74 68 58 61 61 58 68 68 68 71 68 65 68 71 68 81 77 77 84 90 94 90 77 74 68 84 90 97 97 97 97 97 100 100
84 87 87 87 90 84 77 71 65 61 52 48 52 48 45 48 52 42 48 48 55 52 55 55 65 65 74 68 71 74 74 81 81 74 77 87 94 97 97 97 97 100 100
94 94 87 77 77 74 74 68 52 32 45 29 29 19 29 29 42 35 42 45 39 32 35 39 42 48 55 61 61 68 71 71 74 84 77 84 87 90 90 94 94 100 100
84 84 74 71 68 61 52 39 23 16 16 6 6 13 13 16 19 23 19 19 19 23 23 19 23 23 29 35 45 48 58 71 71 84 87 74 74 87 87 90 90 94 94
71 58 48 32 45 45 35 26 3 3 6 3 3 3 10 10 10 10 6 6 10 10 10 10 13 16 16 26 26 35 45 52 65 71 71 74 68 55 74 84 87 94 94
52 45 35 32 29 13 13 6 3 3 3 0 0 0 3 3 3 6 3 6 10 10 10 10 10 10 10 16 19 32 29 32 45 42 55 61 65 68 58 74 84 87 87
35 32 29 32 19 10 3 6 3 3 0 0 0 0 0 0 0 0 0 3 0 3 3 3 3 3 3 3 3 3 10 16 29 32 35 39 48 48 58 58 77 71 74
32 29 19 6 13 10 0 0 0 0 0 0 0 0 0 0 0 0 0 0 0 0 0 0 3 3 3 3 6 3 3 6 19 32 26 32 32 35 45 52 58 68 71
29 35 29 23 13 16 10 10 6 3 0 0 0 0 0 0 0 0 0 0 0 0 0 0 0 0 0 0 3 3 6 3 16 3 13 19 19 29 26 26 42 52 55
32 32 23 23 19 19 13 13 3 6 3 0 0 0 0 0 0 0 0 0 0 0 0 0 0 0 0 0 0 0 0 0 0 3 0 3 13 19 26 32 16 32 39
42 35 35 35 39 32 23 16 13 10 3 3 3 0 0 0 0 0 0 0 0 0 0 0 0 0 0 0 0 0 0 0 0 0 0 0 0 3 6 0 3 3 19
39 39 35 42 42 39 26 26 16 6 3 3 3 0 0 0 0 0 0 0 0 0 0 0 0 0 0 0 0 0 0 0 0 0 0 0 0 0 0 0 3 13 3
45 39 32 45 48 29 23 13 13 6 6 6 0 0 0 0 0 0 0 0 0 0 0 0 0 0 0 0 0 0 0 0 0 0 0 0 0 0 0 0 0 3 6

GEFSSE_con_cape1000_066.txt.gz
Probability
97 100 100 100 100 100 100 100 100 100 100 100 100 100 100 100 100 100 100 100 97 94 97 97 100 100 97 94 97 94 97 97 97 97 97 100 97 100 97 100 100 94 100
100 100 100 100 100 100 100 100 100 100 100 100 100 100 100 100 100 100 100 100 90 84 87 90 87 97 97 87 90 94 90 90 87 90 90 100 100 100 100 100 100 100 100
97 100 100 100 100 100 100 100 100 100 100 100 100 100 100 100 100 100 100 94 90 87 81 87 77 87 94 84 81 90 87 97 100 100 100 100 100 100 100 100 100 100 100
94 100 100 100 100 100 100 100 100 100 100 100 100 100 100 100 100 100 97 97 100 90 94 84 87 84 97 84 84 90 97 97 100 97 100 94 100 100 100 100 100 100 100
100 100 100 100 100 100 100 100 100 100 100 100 100 100 100 100 100 100 100 100 100 100 100 94 84 87 94 97 97 94 97 100 100 100 97 100 100 100 100 100 100 100 100
100 100 100 100 100 100 100 100 100 100 100 100 100 100 100 100 100 100 100 100 100 100 94 94 97 90 87 90 97 97 94 100 100 100 100 100 100 100 100 100 100 100 100
100 100 100 100 100 100 100 100 100 100 100 100 100 100 100 100 100 100 100 100 100 100 100 94 97 97 94 94 94 100 97 97 100 100 100 100 100 100 100 100 100 100 100
100 100 100 100 100 100 100 100 100 100 100 100 100 100 100 100 100 100 100 100 100 100 100 100 100 100 97 97 94 97 97 97 87 87 97 100 100 100 100 100 100 97 100
100 100 100 100 100 100 100 100 100 100 100 100 100 100 97 97 97 100 100 100 100 100 100 100 97 100 100 100 94 94 94 97 97 87 94 97 100 100 100 100 100 100 100
100 100 100 100 100 100 100 100 100 100 100 100 97 94 94 90 94 97 97 97 100 100 100 100 100 97 100 97 97 94 94 94 84 58 74 97 100 100 100 100 100 100 100
97 97 100 100 97 100 100 100 100 100 100 94 94 90 90 90 87 87 87 90 84 90 94 97 97 100 97 97 97 94 94 87 55 35 65 94 100 100 100 100 100 100 100
97 97 100 97 94 94 94 97 97 90 94 94 90 81 81 87 77 77 74 65 68 71 81 84 90 94 97 94 94 94 90 84 45 35 77 87 94 100 100 100 100 100 100
97 100 94 97 94 94 94 94 90 87 77 74 81 71 71 71 77 71 68 65 61 68 68 68 74 74 81 90 90 87 84 77 55 42 74 87 90 94 100 100 100 100 100
97 100 97 97 94 90 84 84 81 77 65 58 52 45 45 52 65 71 74 65 55 55 58 55 55 61 61 61 77 84 71 71 71 61 74 87 84 87 97 100 100 100 100
100 94 97 94 94 87 87 81 65 65 48 48 52 35 42 42 45 45 61 71 48 45 52 39 39 35 45 52 52 48 55 68 74 71 71 81 84 90 94 100 97 97 97
97 97 94 84 84 81 81 77 68 42 55 39 32 29 29 29 35 32 32 58 45 45 42 39 32 39 32 35 35 42 52 55 61 77 68 84 84 90 97 97 100 100 97
94 94 90 84 74 68 65 61 52 29 19 19 19 23 23 19 19 26 29 35 32 29 26 32 13 19 13 13 26 35 42 55 65 68 68 77 84 87 94 100 100 100 100
94 97 90 58 65 65 65 55 32 23 19 23 16 13 3 10 10 16 13 16 26 19 26 29 19 13 10 10 16 26 32 48 52 58 58 61 68 68 90 94 100 100 100
97 97 84 68 52 52 45 45 35 39 35 29 13 13 3 0 0 3 10 13 13 13 13 3 6 3 3 6 6 6 23 29 45 39 42 65 74 74 74 77 100 94 94
90 87 77 68 61 48 58 55 45 32 29 26 16 13 0 0 0 0 0 3 10 6 10 10 6 6 6 6 6 3 10 16 26 29 52 48 74 74 74 74 74 81 90
84 87 77 74 81 68 65 55 58 58 48 39 23 3 0 0 0 0 0 0 0 0 0 3 3 3 6 10 6 3 0 0 6 19 35 45 45 58 65 65 74 61 65
74 81 84 81 81 74 77 68 68 45 39 32 23 13 3 3 0 0 0 0 0 0 0 0 3 0 0 0 3 0 0 3 13 0 23 45 32 45 39 39 61 58 65
74 77 65 87 81 77 68 68 58 61 48 39 23 13 3 0 0 0 0 0 3 0 0 0 0 0 0 0 0 0 0 0 0 3 10 16 35 39 39 32 26 45 39
65 68 90 90 87 77 61 65 58 55 39 29 16 13 6 3 0 0 0 0 0 0 0 0 0 0 0 0 0 0 0 0 0 0 0 3 13 16 19 10 13 26 35
52 65 84 87 87 81 68 58 52 48 23 19 16 10 6 3 0 0 0 0 0 0 0 0 0 0 0 0 0 0 0 0 0 0 0 0 0 3 13 16 16 13 16
48 61 71 77 77 71 65 45 39 26 23 19 13 13 6 3 0 0 0 0 0 0 0 0 0 0 0 0 0 0 0 0 0 0 0 0 0 0 3 10 10 13 13

GEFSSE_con_cape1000_072.txt.gz
Probability
100 100 100 100 100 100 100 100 100 100 100 100 100 100 100 100 100 100 100 100 100 100 100 100 100 100 100 100 97 94 97 100 100 100 100 100 100 100 100 100 97 97 97
100 100 100 100 100 100 100 100 100 100 100 100 100 100 100 100 100 100 100 100 100 100 100 100 100 100 100 100 97 97 97 100 100 100 100 100 100 100 100 100 100 100 100
100 100 100 100 100 100 100 100 100 100 100 100 100 100 100 100 100 100 100 100 97 97 97 97 97 97 100 97 97 97 100 100 100 100 100 94 100 100 100 100 100 100 100
100 100 100 100 100 100 100 100 100 100 100 100 100 100 100 100 100 100 100 100 100 97 90 90 94 94 94 90 94 94 100 100 97 97 71 90 87 100 100 100 100 100 100
100 100 100 100 100 100 100 100 100 100 100 100 100 100 100 100 100 100 100 100 100 100 97 84 90 94 94 97 90 94 97 100 100 94 65 65 100 100 100 100 100 100 100
100 100 100 100 100 100 100 100 100 100 100 100 100 100 100 100 100 100 100 97 97 100 97 90 87 90 90 94 94 97 94 100 100 65 65 71 97 100 100 100 100 100 100
100 100 100 100 100 100 100 100 100 100 100 100 100 100 100 100 100 100 100 97 97 100 100 100 94 94 90 87 87 94 97 100 90 52 58 71 97 100 100 100 100 100 100
100 100 100 100 100 100 100 100 100 100 100 100 100 100 100 100 100 100 100 100 100 100 100 100 100 97 90 90 90 97 97 94 77 61 65 71 100 100 100 100 100 100 100
100 100 100 100 100 100 100 100 100 100 100 100 100 100 100 100 100 100 100 100 100 100 100 100 100 100 100 100 100 100 97 97 74 39 65 65 97 97 100 100 100 100 100
100 100 100 100 100 100 100 100 100 100 100 100 100 94 84 87 87 94 100 94 94 94 97 94 97 100 100 100 100 97 97 94 61 35 35 58 97 97 97 100 100 100 100
74 94 94 97 97 100 100 100 100 100 100 90 87 81 65 55 58 68 81 84 77 77 84 84 94 94 94 97 94 97 97 81 42 19 16 65 90 94 94 100 100 100 100
81 81 87 90 90 94 97 90 84 74 68 52 42 42 39 32 42 52 55 58 55 55 61 74 74 74 74 71 74 84 81 74 42 23 29 81 90 90 94 97 97 100 100
84 87 84 87 87 81 71 74 68 58 42 29 23 19 13 16 16 16 13 26 29 32 29 42 39 42 48 48 35 42 52 48 26 16 32 77 74 84 90 94 97 97 100
87 84 81 74 68 65 58 52 48 35 19 16 10 6 6 3 10 10 13 13 13 13 16 13 23 29 26 26 29 26 35 35 23 6 13 74 77 81 87 94 97 97 97
84 81 74 58 52 45 42 32 19 10 10 10 10 6 0 0 3 6 3 6 6 6 6 6 10 13 13 16 16 19 16 19 23 6 10 58 68 77 90 77 94 97 97
77 71 65 58 42 29 26 16 10 13 10 10 3 3 0 0 0 0 0 0 0 0 0 3 3 3 6 6 6 10 13 16 16 10 10 19 61 71 74 74 90 97 97
68 52 52 52 42 16 10 6 10 6 0 0 0 3 0 0 0 0 0 0 0 0 0 0 3 3 3 3 3 3 6 6 6 6 6 16 19 58 71 77 84 90 94
55 48 45 45 29 16 3 3 0 0 0 0 0 0 0 0 0 0 0 0 0 0 0 0 0 3 3 0 0 0 0 0 0 6 3 6 13 19 45 84 90 87 90
42 39 32 29 19 10 3 3 0 0 0 0 0 0 0 0 0 0 0 0 0 0 0 0 0 0 0 0 0 0 0 0 0 0 0 3 3 10 10 29 74 81 81
35 29 23 19 13 6 0 0 0 0 0 0 0 0 0 0 0 0 0 0 0 0 0 0 0 0 0 0 0 0 0 0 0 0 0 0 0 0 10 10 19 39 81
32 26 23 19 10 0 0 0 0 0 0 0 0 0 0 0 0 0 0 0 0 0 0 0 0 0 0 0 0 0 0 0 0 0 0 0 0 0 0 0 6 13 23
26 23 16 6 3 0 0 0 0 0 0 0 0 0 0 0 0 0 0 0 0 0 0 0 0 0 0 0 0 0 0 0 0 0 0 0 0 0 0 0 0 6 6
26 19 19 6 3 0 0 0 0 0 0 0 0 0 0 0 0 0 0 0 0 0 0 0 0 0 0 0 0 0 0 0 0 0 0 0 0 0 0 0 0 3 3
23 16 6 3 0 0 0 0 0 0 0 0 0 0 0 0 0 0 0 0 0 0 0 0 0 0 0 0 0 0 0 0 0 0 0 0 0 0 0 0 0 0 0
16 13 3 3 3 0 0 0 0 0 0 0 0 0 0 0 0 0 0 0 0 0 0 0 0 0 0 0 0 0 0 0 0 0 0 0 0 0 0 0 0 0 0
19 16 6 3 3 3 3 0 0 0 0 0 0 0 0 0 0 0 0 0 0 0 0 0 0 0 0 0 0 0 0 0 0 0 0 0 0 0 0 0 0 0 0

GEFSSE_con_cape1000_078.txt.gz
Probability
84 100 100 100 100 100 100 100 100 100 100 100 100 100 100 100 100 100 100 100 100 100 97 97 94 97 97 94 94 97 100 100 100 97 97 97 100 100 100 100 97 100 100
94 100 100 100 100 100 100 100 100 100 100 100 100 100 100 100 100 100 100 100 97 97 97 97 87 94 94 94 97 97 100 100 100 100 94 90 94 100 100 100 97 100 100
100 100 100 100 100 100 100 100 100 100 100 100 100 100 100 100 100 100 100 100 97 97 94 94 94 97 100 94 97 100 100 100 100 100 100 94 100 100 100 100 100 100 100
100 100 100 100 100 100 100 100 100 100 100 100 100 100 100 100 100 100 94 94 94 87 90 94 94 87 90 94 100 100 100 100 100 100 90 94 97 100 100 100 100 100 100
100 100 100 100 100 100 100 100 100 100 100 100 100 100 100 100 100 100 100 97 94 84 87 94 87 90 90 90 97 100 97 100 97 94 84 90 100 100 100 100 100 100 100
100 100 100 100 100 100 100 100 100 100 100 100 100 100 100 100 100 100 97 97 97 94 94 94 94 90 90 90 94 94 97 100 90 68 84 100 100 100 100 100 100 100 100
100 100 100 100 100 100 100 100 100 100 100 100 100 100 100 100 100 100 97 94 97 94 94 94 94 94 94 94 97 94 94 100 65 71 81 100 97 100 100 100 100 100 100
100 100 100 100 100 100 100 100 100 100 100 100 100 100 100 100 100 100 100 100 100 100 100 100 94 90 90 94 94 97 97 97 74 65 87 90 94 100 100 100 100 100 100
100 100 100 100 100 100 100 100 100 100 100 100 100 100 100 100 100 100 100 100 97 97 97 100 97 97 100 100 100 100 100 97 39 71 81 87 97 100 100 100 100 100 100
97 97 97 100 100 100 100 100 100 100 100 100 100 97 94 94 94 90 90 94 90 94 94 94 94 90 97 100 100 97 97 87 42 55 65 84 94 100 100 100 100 100 100
97 97 94 97 97 97 97 97 97 100 100 90 87 87 71 55 55 68 77 71 68 65 84 87 90 90 87 87 94 90 87 55 32 48 58 71 94 97 100 100 100 100 97
87 94 97 87 97 97 94 84 71 58 52 35 39 35 29 26 32 39 45 65 68 71 65 71 71 74 65 58 58 68 58 52 32 52 61 87 90 100 100 100 100 100 100
68 87 94 90 94 87 74 61 52 35 35 26 19 19 19 16 13 16 16 16 16 23 23 35 35 35 35 52 52 45 45 52 48 32 58 81 90 94 97 100 97 100 100
52 65 71 74 68 65 55 55 35 23 13 10 6 6 3 3 6 6 10 13 13 13 16 16 19 19 23 26 32 35 35 39 29 29 19 71 84 84 84 97 94 94 94
35 48 52 45 45 39 35 35 23 10 3 3 0 0 0 0 0 0 0 0 3 3 3 6 10 19 16 19 19 26 19 16 13 16 26 42 71 81 87 84 94 90 94
29 35 45 32 35 29 16 16 10 0 0 0 0 0 0 0 0 0 0 0 0 0 0 0 3 3 6 10 13 13 10 10 13 16 13 19 45 65 81 84 81 87 87
29 29 29 26 19 6 3 0 0 0 0 0 0 0 0 0 0 0 0 0 0 0 0 0 0 0 3 3 0 3 6 6 3 6 10 13 16 26 65 81 84 81 84
29 19 19 32 10 0 0 0 0 0 0 0 0 0 0 0 0 0 0 0 0 0 0 0 0 0 0 0 0 0 0 0 0 3 3 6 10 16 23 52 77 74 65
16 13 16 6 0 0 0 0 0 0 0 0 0 0 0 0 0 0 0 0 0 0 0 0 0 0 0 0 0 0 0 0 0 0 0 0 6 10 13 16 45 68 42
6 6 6 6 3 0 0 0 0 0 0 0 0 0 0 0 0 0 0 0 0 0 0 0 0 0 0 0 0 0 0 0 0 0 0 0 0 6 10 13 19 16 29
6 6 6 3 0 0 0 0 0 0 0 0 0 0 0 0 0 0 0 0 0 0 0 0 0 0 0 0 0 0 0 0 0 0 0 0 0 0 6 3 10 13 13
6 6 3 0 0 0 0 0 0 0 0 0 0 0 0 0 0 0 0 0 0 0 0 0 0 0 0 0 0 0 0 0 0 0 0 0 0 0 0 0 6 10 13
6 3 0 0 0 0 0 0 0 0 0 0 0 0 0 0 0 0 0 0 0 0 0 0 0 0 0 0 0 0 0 0 0 0 0 0 0 0 0 0 0 3 3
6 3 0 0 0 0 0 0 0 0 0 0 0 0 0 0 0 0 0 0 0 0 0 0 0 0 0 0 0 0 0 0 0 0 0 0 0 0 0 0 0 0 0
6 3 0 0 0 0 0 0 0 0 0 0 0 0 0 0 0 0 0 0 0 0 0 0 0 0 0 0 0 0 0 0 0 0 0 0 0 0 0 0 0 0 0
3 3 0 0 0 0 0 0 0 0 0 0 0 0 0 0 0 0 0 0 0 0 0 0 0 0 0 0 0 0 0 0 0 0 0 0 0 0 0 0 0 0 0

GEFSSE_con_cape1000_084.txt.gz
Probability
19 48 100 100 100 100 100 100 100 100 100 100 100 100 100 100 100 100 97 97 97 100 97 97 100 94 94 97 90 90 97 100 100 90 94 97 97 97 94 97 100 100 100
29 68 100 100 100 100 100 100 100 100 100 100 100 100 100 100 100 100 97 97 97 97 97 94 94 87 87 87 97 100 100 100 100 97 97 100 97 97 94 90 100 100 100
45 74 87 100 100 100 100 100 100 100 100 100 100 100 100 100 97 97 97 94 94 87 87 84 90 84 90 97 100 100 100 100 100 97 100 84 90 97 94 97 100 100 100
42 61 65 100 100 100 100 100 100 100 100 100 100 100 100 100 97 97 97 87 90 87 81 77 74 84 97 100 100 100 100 100 100 100 84 71 74 100 97 100 100 100 100
52 65 100 100 100 100 100 100 100 100 100 100 100 100 100 100 97 94 97 87 84 84 81 84 84 87 97 100 100 100 100 100 97 90 77 77 97 100 100 100 100 100 100
68 65 100 100 100 100 100 100 100 100 100 100 100 100 100 97 100 100 100 90 94 94 90 87 90 90 94 94 97 97 97 97 90 42 58 77 94 100 100 100 100 100 100
52 74 94 100 100 100 100 100 100 100 100 100 100 100 100 100 97 97 94 94 94 94 97 97 97 94 94 97 97 97 97 90 74 52 58 58 100 100 100 100 100 100 100
45 65 100 100 100 100 100 100 100 100 100 100 100 100 100 97 97 100 100 100 94 94 94 94 94 94 90 97 100 100 97 97 58 35 58 58 100 100 100 100 100 100 100
48 74 97 87 100 100 100 100 100 100 100 100 100 100 97 97 97 94 97 94 97 97 97 90 94 94 97 100 100 100 97 90 81 68 39 77 100 100 100 100 100 100 100
74 87 100 90 97 90 87 100 100 100 97 97 97 97 94 94 84 81 87 84 81 81 90 90 90 84 90 97 100 100 97 90 65 65 52 90 100 100 100 100 100 100 100
97 90 84 94 100 97 90 100 100 100 100 97 94 84 87 87 77 77 77 77 81 84 84 87 90 90 90 90 87 87 87 81 48 52 87 97 97 97 97 100 100 100 100
94 90 97 94 94 90 94 100 100 97 94 90 90 77 77 81 65 65 61 74 74 84 77 77 77 77 81 77 87 87 74 52 45 52 81 90 97 97 97 100 97 100 100
94 97 97 97 94 90 94 97 94 87 90 81 84 77 68 55 48 48 58 52 68 58 68 65 55 52 52 77 77 68 68 48 45 52 77 87 84 94 90 94 94 97 97
94 97 97 97 97 97 97 94 94 87 77 61 58 45 32 29 32 35 35 35 42 39 65 48 61 58 52 45 52 65 65 61 55 55 90 84 81 87 87 87 90 90 87
87 94 90 94 97 97 97 90 81 77 52 48 42 26 26 26 23 19 26 26 23 29 32 35 42 42 35 39 35 35 45 48 52 48 55 68 65 77 84 87 87 81 77
90 94 97 94 97 97 97 81 74 45 42 16 16 16 16 10 13 13 10 16 10 16 19 23 13 23 23 19 23 26 32 32 32 39 42 48 48 61 68 74 74 84 77
87 90 94 94 94 90 87 65 52 45 23 13 10 10 3 0 3 0 3 3 3 6 10 10 10 6 16 16 16 19 26 23 23 23 23 29 42 52 61 61 65 81 77
87 87 87 71 77 84 71 58 48 35 10 3 6 3 0 0 3 3 0 0 3 3 6 10 6 6 6 6 10 19 19 26 10 13 23 23 39 35 39 58 58 65 71
87 87 81 77 74 68 61 58 35 26 10 6 0 0 0 0 0 0 0 0 3 3 3 3 10 3 3 3 3 13 10 10 6 3 0 16 19 29 29 42 32 58 52
65 68 74 77 74 68 65 52 42 19 13 3 0 0 0 0 0 0 0 0 0 0 3 6 6 6 0 0 0 0 0 3 3 3 0 0 6 13 19 26 29 45 45
68 61 61 61 65 68 58 42 32 19 13 0 0 0 0 0 0 0 0 0 0 0 0 0 3 0 0 0 0 0 0 0 0 0 0 0 0 3 10 16 29 32 35
61 58 61 68 65 65 58 52 39 26 6 3 0 6 3 0 0 0 0 0 0 0 0 0 0 0 0 0 0 0 0 0 0 0 0 0 0 0 0 3 13 23 19
65 55 42 61 55 61 55 42 29 26 13 6 6 16 0 0 0 0 0 0 0 0 0 0 0 0 0 0 0 0 0 0 0 0 0 0 0 0 0 0 3 3 10
52 39 42 58 58 61 58 42 26 16 10 13 13 6 10 0 0 0 0 0 0 0 0 0 0 0 0 0 0 0 0 0 0 0 0 0 0 0 0 0 0 0 3
39 35 45 55 58 61 58 55 58 19 19 10 10 19 10 3 3 0 0 0 0 0 0 0 0 0 0 0 0 0 0 0 0 0 0 0 0 0 0 0 0 0 0
48 35 35 52 61 65 68 55 71 52 35 19 29 16 6 3 3 0 0 3 0 0 0 0 0 0 0 0 0 0 0 0 0 0 0 0 0 0 0 0 3 0 0

GEFSSE_con_cape1000_090.txt.gz
Probability
74 87 100 100 100 100 100 100 100 100 100 100 100 100 100 100 97 100 100 100 100 100 97 100 90 90 94 90 87 94 90 84 84 90 94 100 97 97 97 97 100 97 100
84 97 100 100 100 100 100 100 100 100 100 100 100 100 100 97 97 97 97 100 100 100 94 97 90 90 94 94 100 94 94 100 87 94 97 100 97 94 97 94 100 100 100
87 94 100 100 100 100 100 100 100 100 100 100 100 100 97 97 100 97 97 97 100 100 90 94 94 94 100 100 97 100 100 97 94 100 97 94 90 90 94 97 100 100 100
77 84 97 100 100 100 100 100 100 100 100 100 100 100 97 97 97 97 97 97 90 87 87 90 90 94 94 97 97 100 97 97 100 100 81 87 77 90 94 100 100 100 100
74 97 100 100 100 100 100 100 100 100 100 100 100 100 100 97 97 94 90 87 87 84 87 84 84 84 97 94 100 97 97 97 97 97 94 94 94 94 97 100 100 100 100
74 84 100 100 100 100 100 100 100 100 100 100 100 97 97 100 94 94 94 94 94 90 90 94 94 87 87 90 100 94 97 94 97 97 97 94 94 100 100 100 100 100 100
77 71 94 100 100 100 100 100 100 100 100 100 100 97 97 100 94 94 87 90 90 90 87 87 94 87 94 94 90 87 87 97 100 84 94 97 100 100 100 97 100 100 100
81 71 100 100 100 100 100 100 100 100 100 100 100 97 97 100 90 87 84 84 87 90 94 94 84 84 87 90 94 94 100 100 94 77 94 97 100 100 100 100 100 100 100
87 71 77 87 100 100 100 100 100 100 100 100 97 94 94 90 90 90 87 84 77 71 84 87 84 90 84 87 97 94 94 97 94 77 97 100 100 100 100 100 100 100 94
97 87 87 81 87 90 97 100 100 100 97 94 97 97 94 87 81 81 87 77 74 71 71 74 77 87 87 97 97 90 97 100 52 61 87 97 100 100 100 100 97 97 94
97 97 81 81 84 87 90 100 100 100 97 97 97 94 87 90 87 81 81 74 68 74 77 74 84 84 84 90 97 94 90 68 39 61 74 97 100 100 97 97 94 97 97
94 94 97 100 100 97 97 100 100 97 97 97 90 90 94 87 74 71 68 68 61 68 71 74 77 77 87 90 90 94 74 65 39 65 77 97 100 100 94 94 94 94 90
87 90 90 97 97 94 97 97 100 97 94 90 90 87 87 71 65 68 74 71 74 71 68 81 81 71 87 87 81 81 84 68 74 74 81 97 100 97 90 90 90 90 87
90 90 87 94 94 97 97 97 94 94 87 84 74 68 55 58 58 58 61 58 61 71 65 65 74 71 65 68 65 68 65 61 68 68 84 97 90 90 87 94 90 90 87
87 90 94 94 97 97 97 94 90 90 74 61 61 45 39 48 42 32 42 52 42 52 58 58 68 68 55 58 55 58 61 55 58 61 81 87 90 90 90 87 90 87 90
90 90 90 97 97 97 94 94 90 65 65 45 35 23 26 29 32 32 35 45 32 35 32 52 39 42 52 48 39 35 35 45 55 52 58 74 87 81 81 81 84 84 84
87 94 90 94 97 97 94 90 77 61 39 39 26 19 10 19 16 23 23 19 23 23 19 29 19 23 23 26 26 26 29 32 26 29 42 61 61 77 77 84 84 77 84
94 90 87 90 97 97 97 84 68 42 45 26 19 23 16 13 6 13 10 10 13 13 13 29 16 16 19 16 26 32 29 29 26 32 35 39 48 39 71 74 81 81 77
87 90 90 90 97 87 87 74 68 58 58 29 29 19 13 3 0 3 6 10 13 10 10 10 23 16 16 13 10 19 32 32 26 13 13 23 35 39 45 55 74 74 77
77 87 87 84 87 90 81 74 81 55 42 35 35 26 16 3 3 0 0 3 3 6 13 13 10 16 10 19 3 6 10 19 19 16 16 10 23 32 35 35 48 45 61
81 87 87 84 84 84 84 74 68 58 45 42 29 23 13 6 3 0 0 3 3 3 3 3 6 6 6 6 6 0 3 3 10 10 3 6 10 23 23 32 35 35 35
84 87 87 87 87 81 81 68 65 71 65 55 42 42 16 10 6 0 3 6 3 3 3 3 3 3 3 3 3 0 0 3 6 0 6 6 0 16 10 6 29 32 23
84 84 71 84 81 74 61 58 55 68 65 52 52 45 29 13 6 6 3 3 3 6 3 3 3 3 0 0 3 0 0 0 3 3 0 3 3 6 0 13 13 23 16
71 77 84 77 71 74 61 58 52 48 52 65 71 74 48 29 10 10 3 3 3 0 3 0 0 0 3 3 0 0 0 0 0 0 0 0 0 0 0 0 0 10 13
71 68 61 61 68 74 58 65 68 58 71 71 68 74 65 42 16 6 3 3 6 3 0 0 0 0 0 0 0 0 0 0 0 0 0 0 0 0 0 3 0 3 10
65 65 58 61 65 77 61 68 71 71 77 71 68 71 68 58 35 13 3 6 6 3 0 0 0 0 0 0 0 0 0 0 0 0 0 0 0 0 0 0 0 0 0

GEFSSE_con_cape1000_096.txt.gz
Probability
94 100 100 100 100 100 100 100 100 100 100 100 100 100 100 100 100 100 100 100 100 100 94 94 97 97 97 97 97 97 100 100 100 97 97 100 100 100 100 100 97 97 97
97 100 100 100 100 100 100 100 100 100 100 100 100 100 97 97 100 100 100 100 100 100 94 94 97 97 100 100 100 100 100 97 100 100 97 97 100 100 100 100 97 97 97
94 100 100 100 100 100 100 100 100 100 100 100 100 97 97 97 94 97 97 100 100 100 97 97 97 97 100 100 100 100 97 97 97 97 94 81 97 100 100 100 100 100 100
97 100 100 100 100 100 100 100 100 100 100 100 97 97 97 97 97 97 100 100 100 100 97 97 94 94 97 97 100 100 100 97 97 90 52 74 87 100 100 100 100 100 100
90 100 100 100 100 100 100 100 100 100 100 100 100 100 100 100 100 100 100 90 94 97 90 87 90 94 97 97 100 100 100 100 94 81 58 58 94 100 100 100 100 100 100
90 100 100 100 100 100 100 100 100 100 100 100 100 100 100 100 97 97 97 94 90 90 94 84 81 84 90 97 100 97 100 100 87 55 58 87 94 100 100 100 100 100 100
94 100 100 100 100 100 100 100 100 100 100 100 100 100 100 97 94 90 87 90 90 87 90 87 87 84 90 87 94 100 100 97 58 42 55 87 94 97 100 100 100 100 100
100 100 100 100 100 100 100 100 100 100 100 100 100 100 97 94 94 90 87 87 87 87 87 87 81 84 84 84 100 100 100 94 71 58 65 77 97 97 100 100 100 100 100
94 100 100 100 100 100 100 100 100 100 100 100 100 94 94 94 94 87 87 87 81 84 84 81 74 74 77 87 94 97 97 87 29 55 65 81 94 97 97 100 100 100 100
81 87 90 100 100 100 100 100 100 100 100 100 97 90 90 90 90 87 84 81 81 81 81 74 74 74 87 87 94 97 94 55 35 45 48 74 97 97 97 100 100 97 100
61 71 74 87 87 97 97 100 100 100 97 97 97 90 90 58 58 68 71 71 65 61 65 71 77 77 84 87 84 81 48 19 23 29 35 71 90 94 97 100 100 100 97
55 65 71 77 77 77 94 97 97 94 94 84 71 71 55 29 35 55 68 68 65 65 58 71 71 71 68 39 48 65 23 16 23 29 45 65 71 87 100 100 100 100 100
35 52 48 55 58 65 71 87 81 74 68 58 42 39 35 26 19 39 35 52 48 52 42 52 48 39 39 26 29 23 16 26 16 23 32 58 68 84 97 97 100 100 100
32 39 52 52 48 55 65 61 65 58 55 39 29 23 16 13 13 13 6 10 6 6 19 23 26 23 19 23 19 16 16 13 16 23 26 68 77 81 100 97 94 94 100
45 45 52 45 55 52 55 65 58 45 29 23 13 6 3 3 3 0 3 3 3 0 0 10 10 10 13 13 10 13 16 19 16 19 19 71 81 87 97 97 97 94 94
42 48 48 55 48 45 35 32 29 23 10 6 3 0 0 0 3 3 3 3 3 3 3 3 3 0 3 3 6 6 10 16 16 16 23 48 84 90 90 94 94 94 94
39 48 45 42 39 32 26 19 23 16 10 3 3 0 0 0 0 0 0 0 0 0 0 0 0 0 0 0 3 3 6 10 19 23 16 13 35 84 90 94 94 94 97
48 45 45 45 32 32 19 13 13 13 3 0 0 0 0 0 0 0 0 0 0 0 0 0 0 0 0 0 0 0 0 3 3 10 10 10 10 23 65 87 87 87 94
48 45 45 39 32 29 26 13 10 0 0 0 0 0 0 0 0 0 0 0 0 0 0 0 0 0 0 0 0 0 0 3 0 0 0 6 6 6 16 42 84 84 81
42 48 42 35 29 23 10 6 3 0 0 0 0 0 0 0 0 0 0 0 0 0 0 0 0 0 0 0 0 0 0 0 0 0 0 0 0 0 0 3 13 32 65
45 32 29 32 19 16 10 3 0 0 0 0 0 0 0 0 0 0 0 0 0 0 0 0 0 0 0 0 0 0 0 0 0 0 0 0 0 0 0 0 0 0 10
42 32 32 29 19 13 6 6 0 0 0 0 0 0 0 0 0 0 0 0 0 0 0 0 0 0 0 0 0 0 0 0 0 0 0 0 0 0 0 0 0 0 0
39 42 45 29 23 10 6 3 0 0 0 0 0 0 0 0 0 0 0 0 0 0 0 0 0 0 0 0 0 0 0 0 0 0 0 0 0 0 0 0 0 0 0
39 39 29 32 23 3 3 3 3 0 0 0 0 0 0 0 0 0 0 0 0 0 0 0 0 0 0 0 0 0 0 0 0 0 0 0 0 0 0 0 0 0 0
35 32 29 29 16 3 3 3 3 0 0 0 0 0 0 0 0 0 0 0 0 0 0 0 0 0 0 0 0 0 0 0 0 0 0 0 0 0 0 0 0 0 0
32 32 39 26 13 10 3 3 0 0 0 0 0 0 0 0 0 0 0 0 0 0 0 0 0 0 0 0 0 0 0 0 0 0 0 0 0 0 0 0 0 0 0

GEFSSE_con_cape1000_102.txt.gz
Probability
55 97 100 100 100 100 100 100 100 100 100 100 100 100 100 100 100 100 100 100 97 97 97 94 87 87 97 97 94 90 97 100 100 94 94 90 100 100 97 97 97 94 97
84 100 100 100 100 100 100 100 100 100 100 100 100 100 100 100 100 100 100 100 94 94 94 94 90 94 97 97 94 97 100 97 100 97 94 97 100 100 100 97 97 94 97
90 100 100 100 100 100 100 100 100 100 100 100 100 100 100 100 97 97 100 100 97 94 94 97 97 97 100 97 94 97 97 100 97 100 97 97 100 100 100 100 100 100 100
97 97 100 100 100 100 100 100 100 100 100 97 100 100 97 100 100 100 100 100 100 100 84 90 90 100 97 97 97 100 100 100 100 97 90 94 97 100 100 100 100 100 100
97 100 100 100 100 100 100 100 100 100 100 100 100 97 97 97 97 97 97 97 94 97 94 87 87 90 94 97 100 100 100 100 100 81 74 94 100 100 100 100 100 100 100
100 100 100 100 100 100 100 100 100 100 100 100 100 100 97 97 90 87 90 90 90 90 84 84 84 90 90 94 100 100 100 100 87 61 81 94 100 100 100 100 100 100 100
97 97 100 100 100 100 100 100 100 100 100 100 100 100 97 94 94 87 87 87 90 84 77 77 77 81 87 94 90 97 97 100 55 65 87 97 100 100 100 100 100 100 100
97 97 100 100 100 100 100 100 100 100 100 100 100 97 90 90 90 87 87 87 84 81 81 74 71 74 84 87 90 90 97 90 71 65 87 97 100 100 100 100 100 100 100
90 97 97 97 100 100 100 100 100 100 100 100 100 94 90 90 90 90 90 84 84 77 71 68 68 68 81 87 90 90 94 97 61 74 81 97 100 100 97 100 100 100 100
81 87 97 97 100 100 100 100 100 100 100 100 97 94 87 87 84 84 90 87 81 81 74 65 65 74 84 90 94 94 90 81 52 68 81 90 100 100 97 100 100 100 100
71 74 81 90 97 100 100 100 100 100 94 94 87 90 87 61 61 71 77 77 71 68 65 65 65 65 74 81 87 87 81 39 58 65 77 84 97 97 97 100 100 100 100
68 71 71 84 90 94 94 97 97 94 90 81 77 68 48 29 29 55 52 61 61 52 48 48 55 58 45 42 65 58 39 32 35 55 74 87 97 100 100 100 100 100 100
55 65 61 77 87 81 87 94 87 77 68 61 52 39 19 23 26 35 35 35 35 39 39 42 42 32 32 23 26 39 32 35 39 39 61 81 84 94 97 100 100 100 100
45 52 58 68 81 74 74 81 71 55 48 45 35 26 6 6 10 10 10 19 16 19 19 26 23 23 19 23 26 26 29 35 35 32 39 74 87 94 94 94 97 100 97
32 39 42 48 58 52 55 71 55 48 45 35 23 19 6 6 3 3 3 3 3 3 6 6 13 13 13 6 23 26 23 29 29 29 32 58 87 94 94 90 94 94 87
16 29 42 48 42 42 45 45 32 26 26 23 10 6 0 0 0 0 0 0 0 0 0 0 0 3 3 6 10 13 13 19 23 26 26 32 71 77 94 94 81 84 77
19 16 29 29 32 32 35 29 26 26 16 16 3 0 0 0 0 0 0 0 0 0 0 0 0 0 0 0 0 10 6 19 23 23 23 26 39 52 77 90 94 87 77
13 13 19 29 19 13 19 23 16 13 10 6 0 0 0 0 0 0 0 0 0 0 0 0 0 0 0 0 0 0 0 10 10 10 16 19 26 29 52 65 81 81 71
16 16 16 13 16 13 16 16 10 10 3 0 0 0 0 0 0 0 0 0 0 0 0 0 0 0 0 0 0 0 0 3 0 6 13 16 13 13 16 26 39 58 65
10 10 10 13 6 10 6 3 0 0 0 0 0 0 0 0 0 0 0 0 0 0 0 0 0 0 0 0 0 0 0 0 0 0 0 0 3 3 6 6 16 16 39
6 6 6 6 6 6 3 6 0 0 0 0 0 0 0 0 0 0 0 0 0 0 0 0 0 0 0 0 0 0 0 0 0 0 0 0 0 0 0 6 6 6 13
13 13 13 6 6 6 6 3 0 0 0 0 0 0 0 0 0 0 0 0 0 0 0 0 0 0 0 0 0 0 0 0 0 0 0 0 0 0 0 0 3 3 6
10 6 10 6 6 6 3 0 0 0 0 0 0 0 0 0 0 0 0 0 0 0 0 0 0 0 0 0 0 0 0 0 0 0 0 0 0 0 0 0 0 0 0
19 6 6 6 10 6 3 0 0 0 0 0 0 0 0 0 0 0 0 0 0 0 0 0 0 0 0 0 0 0 0 0 0 0 0 0 0 0 0 0 0 0 0
19 16 13 10 10 6 3 3 0 0 0 0 0 0 0 0 0 0 0 0 0 0 0 0 0 0 0 0 0 0 0 0 0 0 0 0 0 0 0 0 0 0 0
6 10 13 10 13 6 3 3 0 0 0 0 0 0 0 0 0 0 0 0 0 0 0 0 0 0 0 0 0 0 0 0 0 0 0 0 0 0 0 0 0 0 0